Location: Cumbre Roja
(10.2766°N, 67.0675°W)
Time: 01:25:45
(UTC+00:00)

Cosmos 2297 - Pass Details

Date: 18 November 2025
Orbit: 836 x 856 km, 71.0° (Epoch: 08 December)

Event Time Altitude Azimuth Distance (km) Brightness Sun altitude
Rises 22:41:22 0° 193° (SSW) 3,417 7.3 -9.9°
Reaches altitude 10° 22:43:49 10° 192° (SSW) 2,481 6.6 -10.5°
Maximum altitude 22:49:32 81° 105° (ESE) 865 3.7 -11.8°
Drops below altitude 10° 22:55:13 10° 19° (NNE) 2,473 5.8 -13.1°
Enters shadow 22:57:28 - 18° (NNE) 3,335 6.5 -13.6°
